Watonga, OK

10:48 PM CDT on April 24, 2018 (GMT -0500)
Watonga

Weather History for KJWG - December, 2012

Change the Weather History Date:

Monday, December 3, 2012

  Actual Average Record
Temperature  
Mean Temperature 66 °F -  
Max Temperature 77 °F 52 °F 77 °F (2012)
Min Temperature 54 °F 29 °F 15 °F (1978)
Cooling Degree Days 1    
Growing Degree Days 16 (Base 50)    
Moisture  
Dew Point 51 °F    
Average Humidity 65    
Maximum Humidity 100    
Minimum Humidity 25    
Precipitation  
Precipitation 0.00 in - - ()
Sea Level Pressure  
Sea Level Pressure 29.87 in    
Wind  
Wind Speed 19 mph (SW)    
Max Wind Speed 26 mph    
Max Gust Speed 36 mph    
Visibility 10 miles    
Events      
Averages and records for this station are not official NWS values.
T = Trace of Precipitation, MM = Missing Value Source: NWS Daily Summary

Daily Weather History Graph

Daily Weather History Graph

Search for Another Location

Airport or City:

Astronomy

Dec. 03, 2012 Rise Set
Actual Time 7:27 AM CST 5:19 PM CST
Civil Twilight 6:59 AM CST 5:47 PM CST
Nautical Twilight 6:27 AM CST 6:19 PM CST
Astronomical Twilight 5:56 AM CST 6:50 PM CST
Moon 10:02 PM CST (12/3) 10:56 AM CST (12/3)
Length of Visible Light 10h 48m
Length of Day
9h 52m
Waning Gibbous, 78% of the Moon is Illuminated
Dec 3
Waning Gibbous
Dec 6
Last Quarter
Dec 13
New
Dec 19
First Quarter
Dec 28
Full

Hourly Weather History & Observations

Time (CST) Temp. Dew Point Humidity Pressure Visibility Wind Dir Wind Speed Gust Speed Precip Events Conditions
12:15 AM 65.5 °F 58.1 °F 77% 29.85 in 10.0 mi South 18.4 mph - N/A   Clear
12:35 AM 65.8 °F 58.1 °F 76% 29.84 in 10.0 mi South 18.4 mph 23.0 mph N/A   Clear
12:55 AM 65.8 °F 58.1 °F 76% 29.84 in 10.0 mi South 18.4 mph 24.2 mph N/A   Clear
1:15 AM 65.5 °F 57.7 °F 76% 29.83 in 10.0 mi South 18.4 mph 25.3 mph N/A   Clear
1:35 AM 65.7 °F 57.9 °F 76% 29.83 in 10.0 mi South 19.6 mph 26.5 mph N/A   Clear
1:55 AM 65.3 °F 58.1 °F 77% 29.83 in 10.0 mi South 17.3 mph 25.3 mph N/A   Clear
2:15 AM 65.3 °F 58.3 °F 78% 29.82 in 10.0 mi South 18.4 mph 26.5 mph N/A   Clear
2:35 AM 65.3 °F 58.6 °F 79% 29.82 in 10.0 mi South 18.4 mph 26.5 mph N/A   Clear
2:55 AM 64.8 °F 59.0 °F 82% 29.82 in 10.0 mi South 19.6 mph 27.6 mph N/A   Clear
3:15 AM 64.4 °F 59.0 °F 83% 29.81 in 10.0 mi South 20.7 mph 29.9 mph N/A   Clear
3:35 AM 63.9 °F 59.2 °F 85% 29.80 in 10.0 mi South 21.9 mph 28.8 mph N/A   Clear
3:55 AM 63.5 °F 59.4 °F 86% 29.80 in 10.0 mi South 19.6 mph 27.6 mph N/A   Clear
4:15 AM 63.1 °F 59.4 °F 87% 29.80 in 10.0 mi South 17.3 mph 26.5 mph N/A   Clear
4:35 AM 62.8 °F 59.4 °F 89% 29.80 in 10.0 mi SSW 20.7 mph 29.9 mph N/A   Clear
4:55 AM 62.4 °F 59.4 °F 90% 29.79 in 10.0 mi South 25.3 mph 34.5 mph N/A   Clear
5:15 AM 61.9 °F 59.2 °F 91% 29.78 in 10.0 mi South 21.9 mph 32.2 mph N/A   Clear
5:55 AM 61.3 °F 59.9 °F 95% 29.78 in 10.0 mi South 21.9 mph 28.8 mph N/A   Clear
6:15 AM 60.8 °F 60.8 °F 100% 29.78 in 10.0 mi South 21.9 mph 29.9 mph N/A   Scattered Clouds
6:35 AM 60.8 °F 60.8 °F 100% 29.78 in 10.0 mi SSW 19.6 mph 29.9 mph N/A   Scattered Clouds
6:55 AM 60.8 °F 60.8 °F 100% 29.78 in 10.0 mi SSW 25.3 mph 31.1 mph N/A   Scattered Clouds
7:15 AM 60.8 °F 60.8 °F 100% 29.80 in 10.0 mi SSW 18.4 mph 28.8 mph N/A   Mostly Cloudy
7:35 AM 60.8 °F 60.8 °F 100% 29.80 in 10.0 mi SSW 19.6 mph 28.8 mph N/A   Overcast
7:55 AM 60.8 °F 60.8 °F 100% 29.80 in 7.0 mi South 20.7 mph 26.5 mph N/A   Overcast
8:35 AM 61.9 °F 61.9 °F 100% 29.81 in 10.0 mi SSW 19.6 mph 32.2 mph N/A   Overcast
8:55 AM 62.4 °F 61.7 °F 97% 29.81 in 7.0 mi SSW 20.7 mph 33.4 mph N/A   Mostly Cloudy
9:15 AM 63.0 °F 60.8 °F 93% 29.81 in 10.0 mi SSW 24.2 mph 34.5 mph N/A   Mostly Cloudy
9:35 AM 63.9 °F 60.3 °F 88% 29.82 in 10.0 mi SSW 19.6 mph 34.5 mph N/A   Scattered Clouds
9:55 AM 64.8 °F 60.3 °F 85% 29.82 in 10.0 mi SSW 21.9 mph 31.1 mph N/A   Scattered Clouds
10:15 AM 66.0 °F 59.9 °F 81% 29.83 in 10.0 mi SSW 19.6 mph 28.8 mph N/A   Clear
10:35 AM 67.1 °F 59.0 °F 75% 29.82 in 10.0 mi SSW 21.9 mph 31.1 mph N/A   Clear
10:55 AM 68.5 °F 59.0 °F 72% 29.82 in 10.0 mi SSW 21.9 mph 29.9 mph N/A   Clear
11:15 AM 68.9 °F 57.6 °F 67% 29.82 in 10.0 mi SSW 26.5 mph 35.7 mph N/A   Clear
11:35 AM 69.8 °F 57.2 °F 64% 29.83 in 10.0 mi SW 24.2 mph 29.9 mph N/A   Clear
11:55 AM 70.9 °F 55.8 °F 59% 29.82 in 10.0 mi SW 23.0 mph 28.8 mph N/A   Clear
12:15 PM 72.1 °F 54.3 °F 53% 29.80 in 10.0 mi SW 21.9 mph 26.5 mph N/A   Clear
12:35 PM 72.7 °F 51.6 °F 47% 29.80 in 10.0 mi SW 21.9 mph 27.6 mph N/A   Clear
12:55 PM 74.3 °F 48.6 °F 40% 29.80 in 10.0 mi WSW 20.7 mph - N/A   Clear
1:15 PM 74.8 °F 46.4 °F 36% 29.79 in 10.0 mi SW 16.1 mph 21.9 mph N/A   Clear
1:35 PM 75.4 °F 46.0 °F 35% 29.80 in 10.0 mi SW 13.8 mph 19.6 mph N/A   Clear
1:55 PM 75.7 °F 44.6 °F 33% 29.80 in 10.0 mi SW 19.6 mph 24.2 mph N/A   Clear
2:15 PM 76.8 °F 42.4 °F 29% 29.80 in 10.0 mi WSW 15.0 mph - N/A   Clear
2:35 PM 77.7 °F 41.7 °F 28% 29.80 in 10.0 mi SW 13.8 mph - N/A   Clear
2:55 PM 77.5 °F 40.5 °F 26% 29.80 in 10.0 mi WSW 10.4 mph 18.4 mph N/A   Clear
3:15 PM 77.9 °F 40.3 °F 26% 29.80 in 10.0 mi SW 13.8 mph - N/A   Clear
3:35 PM 77.9 °F 39.7 °F 25% 29.81 in 10.0 mi West 17.3 mph 20.7 mph N/A   Clear
3:55 PM 72.7 °F 35.6 °F 26% 29.83 in 10.0 mi NNW 16.1 mph 19.6 mph N/A   Clear
4:15 PM 71.6 °F 34.9 °F 26% 29.84 in 10.0 mi NNW 11.5 mph - N/A   Clear
4:35 PM 69.4 °F 34.9 °F 28% 29.86 in 10.0 mi NNW 12.7 mph 17.3 mph N/A   Clear
4:55 PM 68.2 °F 34.9 °F 29% 29.87 in 10.0 mi North 15.0 mph - N/A   Clear
5:15 PM 65.5 °F 35.6 °F 33% 29.88 in 10.0 mi North 20.7 mph 25.3 mph N/A   Clear
5:35 PM 63.5 °F 35.6 °F 35% 29.90 in 10.0 mi NNW 17.3 mph 25.3 mph N/A   Clear
6:15 PM 60.8 °F 39.7 °F 46% 29.93 in 10.0 mi North 18.4 mph 25.3 mph N/A   Clear
6:35 PM 59.9 °F 41.5 °F 51% 29.95 in 10.0 mi North 18.4 mph 24.2 mph N/A   Clear
6:55 PM 59.0 °F 42.3 °F 54% 29.96 in 10.0 mi North 16.1 mph - N/A   Clear
7:15 PM 58.6 °F 42.8 °F 56% 29.96 in 10.0 mi North 20.7 mph 26.5 mph N/A   Clear
7:35 PM 58.3 °F 42.8 °F 56% 29.97 in 10.0 mi North 19.6 mph 25.3 mph N/A   Clear
7:55 PM 58.1 °F 43.2 °F 58% 29.98 in 10.0 mi North 16.1 mph 27.6 mph N/A   Clear
8:15 PM 58.1 °F 43.7 °F 59% 29.99 in 10.0 mi North 15.0 mph - N/A   Clear
8:35 PM 58.1 °F 43.7 °F 59% 30.00 in 10.0 mi North 17.3 mph 20.7 mph N/A   Clear
9:15 PM 57.6 °F 44.2 °F 61% 30.02 in 10.0 mi North 15.0 mph 18.4 mph N/A   Clear
9:35 PM 57.4 °F 44.1 °F 61% 30.04 in 10.0 mi North 12.7 mph - N/A   Clear
9:55 PM 57.4 °F 44.2 °F 62% 30.05 in 10.0 mi North 13.8 mph - N/A   Clear
10:15 PM 57.4 °F 44.1 °F 61% 30.06 in 10.0 mi North 16.1 mph 20.7 mph N/A   Clear
10:35 PM 57.2 °F 43.9 °F 61% 30.07 in 10.0 mi North 15.0 mph - N/A   Clear
10:55 PM 56.5 °F 43.7 °F 62% 30.06 in 10.0 mi North 15.0 mph - N/A   Clear
11:15 PM 55.9 °F 43.3 °F 63% 30.07 in 10.0 mi North 13.8 mph 20.7 mph N/A   Clear
11:35 PM 55.4 °F 43.0 °F 63% 30.08 in 10.0 mi North 13.8 mph - N/A   Clear
11:55 PM 54.9 °F 42.8 °F 64% 30.09 in 10.0 mi North 12.7 mph - N/A   Clear